HULIANWANG DIGUI-86

Satellite information

Favourite Embed

Satellite Type and Status

PAYLOADIN ORBIT

Key statistics

Satellite HULIANWANG DIGUI-86 at a glance.

Uptime

23

Days in orbit

Revolutions

≈ 13.6

Per day

Orbit

LEO

Low Earth Orbit

Inclination

86.5

Latest

Satellite identification and parameters

Extended collection of information and parameters for HULIANWANG DIGUI-86.

Object identification

Identified? True

Debris? False

Object name: HULIANWANG DIGUI-86

International designator: 2025-220E

Object number (NORAD): 65821

Object ID (CCSDS): 65821

Country: PEOPLES REPUBLIC OF CHINA (PRC)

Current information (Y/N): Y

Orbital parameters

Period: 105.622 minutes

Inclination: 86.4915 deg

SMA: 7401.671 km

Apoapsis: 1024.729 km

Periapsis: 1022.344 km

RAAN: 126.442 deg

Eccentricy: 0.0001611

Argument of periapsis: 110.8413 deg

Mean anomaly: 249.2915 deg

Mean motion: 13.63352242 rev/day

Mean motion (dot): 0.00000053 rev/day2

B* drag term: 0.000046823 1/REarth

Two-line elements (TLE)

Creation date: Oct. 17, 2025, 6:46 a.m.

Reference frame: TEME

Reference center: EARTH

Epoch: Oct. 16, 2025, 5:45 p.m. UTC

TLE line 0: 0 HULIANWANG DIGUI-86

TLE line 1: 1 65821U 25220E 25289.74024751 .00000053 00000-0 46823-4 0 9994

TLE line 2: 2 65821 86.4915 126.4420 0001611 110.8413 249.2915 13.63352242 2637

Live tracking on map

Real-time ground track for satellite HULIANWANG DIGUI-86.

In-orbit conjunctions

There are no conjunctions computed for HULIANWANG DIGUI-86, at the moment. Check back to stay up to date, as we update our databases every day.

Go to all conjunctions

Associated space launch

A batch of 5 Low Earth Orbit communication satellites for the Chinese state owned SatNet constellation operated by the China Satellite Network Group. The constellation will eventually consists of 13000 satellites.

HULIANWANG DIGUI-86 was lifted into orbit during the mission ‘Long March 6A | SatNet LEO Group 11’, on board a Long March 6A space rocket.

The launch took place on Sept. 27, 2025, 12:40 p.m. from Launch Complex 9A.

For more information about the launch, click the button.

Launch to space Long March 6A | SatNet LEO Group 11
Long March 6A | SatNet LEO Group 11

Agency: N/A

Status: Launch Successful

Launch date: Sept. 27, 2025, 12:40 p.m. UTC

Rocket: Long March 6A

Launch pad: Launch Complex 9A

Location: Taiyuan Satellite Launch Center, People's Republic of China

...

Latest news about this satellite

News about space launch
China boosts broadband, IoT and weather satellite fleets with flurry of launches

A flurry of launch activity has seen China add to an Internet of Things constellation, loft new broadband satellites and boost its weather satellite fleet. The post China boosts broadband, IoT and weather satellite fleets with flurry of launches appeared...

News about space launch
Launch Roundup: Kuiper, Starlink, IMAP headline launch manifest

A busy slate of launches is planned for the last full week of September, including… The post Launch Roundup: Kuiper, Starlink, IMAP headline launch manifest appeared first on NASASpaceFlight.com.


Newsletter sign-up

Weekly statistics, charts and insights to help you stay on top of the space industry.